Wetterdaten: Montag, 02.07.2012
Datum Zeit Temperatur Luftfeuchte Regen Wind Richtung Richtung Taupunkt Windchill Windben
02.07.2012 00:00 13,9 C 92 % 0,0 l/m 0,0 km/h (0 Bft) N-NW 337 12,6 C 13,8 C 2,1 km/h (1 Bft)
02.07.2012 00:05 13,9 C 92 % 0,0 l/m 0,2 km/h (0 Bft) N 360 12,6 C 13,8 C 0,0 km/h (0 Bft)
02.07.2012 00:10 14,0 C 92 % 0,0 l/m 0,2 km/h (0 Bft) SO 135 12,7 C 13,8 C 0,0 km/h (0 Bft)
02.07.2012 00:15 14,0 C 92 % 0,0 l/m 0,0 km/h (0 Bft) N 360 12,7 C 13,9 C 0,0 km/h (0 Bft)
02.07.2012 00:20 14,1 C 92 % 0,0 l/m 0,8 km/h (0 Bft) NW 315 12,8 C 14,0 C 1,9 km/h (1 Bft)
02.07.2012 00:25 14,1 C 92 % 0,0 l/m 0,8 km/h (0 Bft) N-NW 337 12,8 C 14,0 C 0,0 km/h (0 Bft)
02.07.2012 00:30 14,1 C 91 % 0,0 l/m 0,2 km/h (0 Bft) N-NW 337 12,7 C 14,0 C 0,0 km/h (0 Bft)
02.07.2012 00:35 14,0 C 91 % 0,0 l/m 0,0 km/h (0 Bft) W-NW 292 12,6 C 14,0 C 0,0 km/h (0 Bft)
02.07.2012 00:40 14,0 C 91 % 0,0 l/m 0,2 km/h (0 Bft) N 360 12,6 C 14,0 C 2,1 km/h (1 Bft)
02.07.2012 00:45 14,0 C 91 % 0,0 l/m 0,2 km/h (0 Bft) N-NO 22 12,6 C 14,0 C 0,0 km/h (0 Bft)
02.07.2012 00:50 14,0 C 91 % 0,0 l/m 0,2 km/h (0 Bft) N-NO 22 12,6 C 14,0 C 0,0 km/h (0 Bft)
02.07.2012 00:55 13,9 C 91 % 0,0 l/m 0,3 km/h (0 Bft) N 360 12,5 C 14,0 C 1,9 km/h (1 Bft)
02.07.2012 01:00 13,9 C 91 % 0,0 l/m 0,3 km/h (0 Bft) N-NO 22 12,5 C 13,7 C 0,0 km/h (0 Bft)
02.07.2012 01:05 13,8 C 91 % 0,0 l/m 0,3 km/h (0 Bft) N-NW 337 12,4 C 13,7 C 0,0 km/h (0 Bft)
02.07.2012 01:10 13,7 C 91 % 0,0 l/m 0,3 km/h (0 Bft) N 360 12,3 C 13,6 C 1,6 km/h (1 Bft)
02.07.2012 01:15 13,7 C 91 % 0,0 l/m 0,5 km/h (0 Bft) N-NW 337 12,3 C 13,5 C 1,9 km/h (1 Bft)
02.07.2012 01:20 13,5 C 91 % 0,0 l/m 0,5 km/h (0 Bft) N-NO 22 12,1 C 13,3 C 1,6 km/h (1 Bft)
02.07.2012 01:25 13,3 C 91 % 0,0 l/m 0,3 km/h (0 Bft) N-NO 22 11,9 C 13,1 C 0,0 km/h (0 Bft)
02.07.2012 01:30 13,1 C 91 % 0,0 l/m 0,0 km/h (0 Bft) N-NO 22 11,7 C 12,8 C 0,0 km/h (0 Bft)
02.07.2012 01:35 13,0 C 91 % 0,0 l/m 0,2 km/h (0 Bft) N-NO 22 11,6 C 12,7 C 0,0 km/h (0 Bft)
02.07.2012 01:40 12,9 C 92 % 0,0 l/m 0,3 km/h (0 Bft) N 360 11,6 C 12,6 C 0,0 km/h (0 Bft)
02.07.2012 01:45 12,9 C 92 % 0,0 l/m 0,3 km/h (0 Bft) NO 45 11,6 C 12,5 C 0,0 km/h (0 Bft)
02.07.2012 01:50 12,6 C 93 % 0,0 l/m 0,0 km/h (0 Bft) N 360 11,5 C 12,3 C 0,0 km/h (0 Bft)
02.07.2012 01:55 12,5 C 93 % 0,0 l/m 0,0 km/h (0 Bft) N 360 11,4 C 12,2 C 0,0 km/h (0 Bft)
02.07.2012 02:00 12,6 C 93 % 0,0 l/m 0,2 km/h (0 Bft) N-NO 22 11,5 C 12,1 C 0,0 km/h (0 Bft)
02.07.2012 02:05 12,5 C 93 % 0,0 l/m 0,2 km/h (0 Bft) W-SW 247 11,4 C 12,1 C 0,0 km/h (0 Bft)
02.07.2012 02:10 12,4 C 93 % 0,0 l/m 0,0 km/h (0 Bft) N-NO 22 11,3 C 12,1 C 0,0 km/h (0 Bft)
02.07.2012 02:15 12,3 C 93 % 0,0 l/m 0,0 km/h (0 Bft) N 360 11,2 C 12,0 C 0,0 km/h (0 Bft)
02.07.2012 02:20 12,1 C 93 % 0,0 l/m 0,0 km/h (0 Bft) O 90 11,0 C 11,8 C 0,0 km/h (0 Bft)
02.07.2012 02:25 12,0 C 93 % 0,0 l/m 0,0 km/h (0 Bft) O-NO 67 10,9 C 11,8 C 0,0 km/h (0 Bft)
02.07.2012 02:30 12,2 C 93 % 0,0 l/m 0,2 km/h (0 Bft) N 360 11,1 C 11,7 C 1,6 km/h (1 Bft)
02.07.2012 02:35 12,3 C 93 % 0,0 l/m 0,2 km/h (0 Bft) N 360 11,2 C 11,8 C 0,0 km/h (0 Bft)
02.07.2012 02:40 12,2 C 93 % 0,0 l/m 0,2 km/h (0 Bft) N 360 11,1 C 11,8 C 0,0 km/h (0 Bft)
02.07.2012 02:45 12,1 C 93 % 0,0 l/m 0,2 km/h (0 Bft) N-NW 337 11,0 C 11,8 C 0,0 km/h (0 Bft)
02.07.2012 02:50 11,9 C 94 % 0,0 l/m 0,0 km/h (0 Bft) W-NW 292 11,0 C 11,7 C 0,0 km/h (0 Bft)
02.07.2012 02:55 11,8 C 94 % 0,0 l/m 0,0 km/h (0 Bft) N 360 10,9 C 11,6 C 0,0 km/h (0 Bft)
02.07.2012 03:00 11,9 C 94 % 0,0 l/m 0,0 km/h (0 Bft) N 360 11,0 C 11,4 C 0,0 km/h (0 Bft)
02.07.2012 03:05 11,9 C 94 % 0,0 l/m 0,0 km/h (0 Bft) N-NO 22 11,0 C 11,4 C 0,0 km/h (0 Bft)
02.07.2012 03:10 11,5 C 94 % 0,0 l/m 0,0 km/h (0 Bft) S 180 10,6 C 11,2 C 0,0 km/h (0 Bft)
02.07.2012 03:15 11,5 C 94 % 0,0 l/m 0,2 km/h (0 Bft) N-NO 22 10,6 C 11,1 C 2,3 km/h (1 Bft)
02.07.2012 03:20 11,5 C 94 % 0,0 l/m 0,2 km/h (0 Bft) N-NO 22 10,6 C 11,1 C 0,0 km/h (0 Bft)
02.07.2012 03:25 11,6 C 94 % 0,0 l/m 0,0 km/h (0 Bft) N-NO 22 10,7 C 11,1 C 0,0 km/h (0 Bft)
02.07.2012 03:30 11,6 C 94 % 0,0 l/m 0,0 km/h (0 Bft) N 360 10,7 C 11,1 C 0,0 km/h (0 Bft)
02.07.2012 03:35 11,6 C 94 % 0,0 l/m 0,0 km/h (0 Bft) NO 45 10,7 C 11,1 C 0,0 km/h (0 Bft)
02.07.2012 03:40 11,6 C 94 % 0,0 l/m 0,2 km/h (0 Bft) NO 45 10,7 C 11,1 C 0,0 km/h (0 Bft)
02.07.2012 03:45 11,7 C 94 % 0,0 l/m 0,5 km/h (0 Bft) N 360 10,8 C 11,1 C 3,4 km/h (1 Bft)
02.07.2012 03:50 12,3 C 94 % 0,0 l/m 1,1 km/h (1 Bft) N 360 11,4 C 11,6 C 3,9 km/h (1 Bft)
02.07.2012 03:55 12,5 C 94 % 0,0 l/m 1,1 km/h (1 Bft) N 360 11,6 C 11,8 C 0,0 km/h (0 Bft)
02.07.2012 04:00 12,0 C 94 % 0,0 l/m 0,6 km/h (0 Bft) SO 135 11,1 C 11,9 C 1,8 km/h (1 Bft)
02.07.2012 04:05 11,8 C 94 % 0,0 l/m 0,6 km/h (0 Bft) O 90 10,9 C 11,8 C 0,0 km/h (0 Bft)
02.07.2012 04:10 12,0 C 94 % 0,0 l/m 1,0 km/h (0 Bft) O 90 11,1 C 11,8 C 1,9 km/h (1 Bft)
02.07.2012 04:15 12,0 C 94 % 0,0 l/m 0,5 km/h (0 Bft) N-NW 337 11,1 C 11,8 C 0,0 km/h (0 Bft)
02.07.2012 04:20 11,8 C 94 % 0,0 l/m 1,0 km/h (0 Bft) W-NW 292 10,9 C 11,8 C 1,6 km/h (1 Bft)
02.07.2012 04:25 11,8 C 94 % 0,0 l/m 1,1 km/h (1 Bft) N 360 10,9 C 11,7 C 0,0 km/h (0 Bft)
02.07.2012 04:30 11,9 C 94 % 0,0 l/m 0,5 km/h (0 Bft) S-SW 202 11,0 C 11,5 C 0,0 km/h (0 Bft)
02.07.2012 04:35 11,8 C 94 % 0,0 l/m 0,8 km/h (0 Bft) O 90 10,9 C 11,4 C 3,9 km/h (1 Bft)
02.07.2012 04:40 11,8 C 94 % 0,0 l/m 1,8 km/h (1 Bft) O-SO 112 10,9 C 11,5 C 4,5 km/h (1 Bft)
02.07.2012 04:45 11,9 C 94 % 0,0 l/m 1,4 km/h (1 Bft) N 360 11,0 C 11,6 C 0,0 km/h (0 Bft)
02.07.2012 04:50 11,9 C 94 % 0,0 l/m 0,2 km/h (0 Bft) N 360 11,0 C 11,6 C 1,6 km/h (1 Bft)
02.07.2012 04:55 11,9 C 95 % 0,0 l/m 0,5 km/h (0 Bft) N-NO 22 11,1 C 11,7 C 0,0 km/h (0 Bft)
02.07.2012 05:00 11,7 C 95 % 0,0 l/m 0,6 km/h (0 Bft) N 360 10,9 C 11,6 C 0,0 km/h (0 Bft)
02.07.2012 05:05 11,7 C 95 % 0,0 l/m 0,2 km/h (0 Bft) N-NW 337 10,9 C 11,6 C 0,0 km/h (0 Bft)
02.07.2012 05:10 12,0 C 94 % 0,0 l/m 0,6 km/h (0 Bft) N 360 11,1 C 11,6 C 2,4 km/h (1 Bft)
02.07.2012 05:15 12,1 C 94 % 0,0 l/m 1,3 km/h (1 Bft) N 360 11,2 C 11,8 C 2,4 km/h (1 Bft)
02.07.2012 05:20 12,3 C 95 % 0,0 l/m 1,9 km/h (1 Bft) N-NW 337 11,5 C 12,0 C 5,1 km/h (1 Bft)
02.07.2012 05:25 12,4 C 95 % 0,0 l/m 1,4 km/h (1 Bft) NW 315 11,6 C 12,1 C 3,1 km/h (1 Bft)
02.07.2012 05:30 12,6 C 95 % 0,0 l/m 1,9 km/h (1 Bft) N 360 11,8 C 12,3 C 6,9 km/h (2 Bft)
02.07.2012 05:35 12,7 C 95 % 0,0 l/m 2,6 km/h (1 Bft) N-NW 337 11,9 C 12,5 C 5,5 km/h (1 Bft)
02.07.2012 05:40 12,8 C 95 % 0,0 l/m 3,2 km/h (1 Bft) N 360 12,0 C 12,6 C 5,1 km/h (1 Bft)
02.07.2012 05:45 12,8 C 95 % 0,0 l/m 3,1 km/h (1 Bft) W-NW 292 12,0 C 12,6 C 4,3 km/h (1 Bft)
02.07.2012 05:50 12,8 C 95 % 0,0 l/m 1,9 km/h (1 Bft) NO 45 12,0 C 12,7 C 7,1 km/h (2 Bft)
02.07.2012 05:55 12,9 C 95 % 0,0 l/m 2,3 km/h (1 Bft) O 90 12,1 C 12,7 C 0,0 km/h (0 Bft)
02.07.2012 06:00 12,9 C 95 % 0,0 l/m 2,4 km/h (1 Bft) W 270 12,1 C 12,8 C 4,8 km/h (1 Bft)
02.07.2012 06:05 12,9 C 95 % 0,0 l/m 2,6 km/h (1 Bft) W 270 12,1 C 12,8 C 2,9 km/h (1 Bft)
02.07.2012 06:10 12,9 C 95 % 0,0 l/m 2,6 km/h (1 Bft) NW 315 12,1 C 12,8 C 4,0 km/h (1 Bft)
02.07.2012 06:15 13,0 C 94 % 0,0 l/m 2,1 km/h (1 Bft) N 360 12,1 C 12,8 C 3,5 km/h (1 Bft)
02.07.2012 06:20 13,0 C 94 % 0,0 l/m 2,4 km/h (1 Bft) N-NW 337 12,1 C 12,8 C 3,4 km/h (1 Bft)
02.07.2012 06:25 13,0 C 94 % 0,0 l/m 2,4 km/h (1 Bft) W-NW 292 12,1 C 12,8 C 3,7 km/h (1 Bft)
02.07.2012 06:30 13,0 C 94 % 0,0 l/m 1,4 km/h (1 Bft) NW 315 12,1 C 12,8 C 2,4 km/h (1 Bft)
02.07.2012 06:35 13,1 C 94 % 0,0 l/m 1,0 km/h (0 Bft) N 360 12,2 C 12,8 C 3,9 km/h (1 Bft)
02.07.2012 06:40 13,1 C 93 % 0,0 l/m 2,1 km/h (1 Bft) NO 45 12,0 C 12,8 C 0,0 km/h (0 Bft)
02.07.2012 06:45 13,1 C 93 % 0,0 l/m 2,3 km/h (1 Bft) S 180 12,0 C 12,8 C 2,9 km/h (1 Bft)
02.07.2012 06:50 13,1 C 93 % 0,0 l/m 1,4 km/h (1 Bft) N 360 12,0 C 12,9 C 2,3 km/h (1 Bft)
02.07.2012 06:55 13,1 C 93 % 0,0 l/m 1,8 km/h (1 Bft) W-SW 247 12,0 C 12,9 C 5,0 km/h (1 Bft)
02.07.2012 07:00 13,1 C 93 % 0,0 l/m 2,7 km/h (1 Bft) W-NW 292 12,0 C 12,8 C 7,6 km/h (2 Bft)
02.07.2012 07:05 13,2 C 93 % 0,0 l/m 2,9 km/h (1 Bft) S-SO 157 12,1 C 12,8 C 4,8 km/h (1 Bft)
02.07.2012 07:10 13,2 C 93 % 0,0 l/m 2,1 km/h (1 Bft) N-NW 337 12,1 C 12,9 C 0,0 km/h (0 Bft)
02.07.2012 07:15 13,2 C 93 % 0,0 l/m 2,3 km/h (1 Bft) N 360 12,1 C 13,0 C 5,0 km/h (1 Bft)
02.07.2012 07:20 13,1 C 93 % 0,0 l/m 2,6 km/h (1 Bft) SW 225 12,0 C 12,9 C 3,4 km/h (1 Bft)
02.07.2012 07:25 13,1 C 92 % 0,0 l/m 2,9 km/h (1 Bft) W 270 11,8 C 12,9 C 6,9 km/h (2 Bft)
02.07.2012 07:30 13,2 C 92 % 0,0 l/m 4,0 km/h (1 Bft) NW 315 11,9 C 13,0 C 13,5 km/h (3 Bft)
02.07.2012 07:35 13,3 C 92 % 0,0 l/m 4,5 km/h (1 Bft) W-NW 292 12,0 C 13,0 C 3,7 km/h (1 Bft)
02.07.2012 07:40 13,3 C 92 % 0,0 l/m 3,7 km/h (1 Bft) W-NW 292 12,0 C 13,1 C 5,1 km/h (1 Bft)
02.07.2012 07:45 13,3 C 92 % 0,0 l/m 3,9 km/h (1 Bft) N-NO 22 12,0 C 13,1 C 4,0 km/h (1 Bft)
02.07.2012 07:50 13,3 C 92 % 0,0 l/m 4,3 km/h (1 Bft) W 270 12,0 C 13,0 C 5,0 km/h (1 Bft)
02.07.2012 07:55 13,4 C 92 % 0,0 l/m 4,2 km/h (1 Bft) NW 315 12,1 C 13,1 C 4,8 km/h (1 Bft)
02.07.2012 08:00 13,5 C 92 % 0,0 l/m 3,1 km/h (1 Bft) S-SW 202 12,2 C 13,3 C 4,7 km/h (1 Bft)
02.07.2012 08:05 13,5 C 91 % 0,0 l/m 2,1 km/h (1 Bft) S 180 12,1 C 13,4 C 0,0 km/h (0 Bft)
02.07.2012 08:10 13,8 C 91 % 0,0 l/m 1,3 km/h (1 Bft) N-NW 337 12,4 C 13,8 C 4,0 km/h (1 Bft)
02.07.2012 08:15 13,8 C 91 % 0,0 l/m 1,3 km/h (1 Bft) S 180 12,4 C 13,9 C 0,0 km/h (0 Bft)
02.07.2012 08:20 13,8 C 91 % 0,0 l/m 1,6 km/h (1 Bft) NW 315 12,4 C 14,0 C 0,0 km/h (0 Bft)
02.07.2012 08:25 13,9 C 91 % 0,0 l/m 0,8 km/h (0 Bft) N-NW 337 12,5 C 14,0 C 0,0 km/h (0 Bft)
02.07.2012 08:30 14,0 C 91 % 0,0 l/m 0,8 km/h (0 Bft) S 180 12,6 C 14,2 C 2,7 km/h (1 Bft)
02.07.2012 08:35 14,2 C 91 % 0,0 l/m 1,0 km/h (0 Bft) S-SW 202 12,8 C 14,4 C 2,6 km/h (1 Bft)
02.07.2012 08:40 14,4 C 90 % 0,0 l/m 1,6 km/h (1 Bft) W-SW 247 12,8 C 14,7 C 3,1 km/h (1 Bft)
02.07.2012 08:45 14,3 C 90 % 0,0 l/m 1,9 km/h (1 Bft) W-SW 247 12,7 C 14,7 C 0,0 km/h (0 Bft)
02.07.2012 08:50 14,3 C 90 % 0,0 l/m 1,0 km/h (0 Bft) S 180 12,7 C 14,9 C 0,0 km/h (0 Bft)
02.07.2012 08:55 14,3 C 90 % 0,0 l/m 0,5 km/h (0 Bft) O-SO 112 12,7 C 14,9 C 2,1 km/h (1 Bft)
02.07.2012 09:00 14,2 C 90 % 0,0 l/m 0,3 km/h (0 Bft) N-NW 337 12,6 C 14,8 C 0,0 km/h (0 Bft)
02.07.2012 09:05 14,2 C 90 % 0,0 l/m 0,3 km/h (0 Bft) O 90 12,6 C 14,7 C 0,0 km/h (0 Bft)
02.07.2012 09:10 14,1 C 89 % 0,0 l/m 0,5 km/h (0 Bft) N 360 12,3 C 14,5 C 0,0 km/h (0 Bft)
02.07.2012 09:15 14,1 C 89 % 0,0 l/m 0,6 km/h (0 Bft) W 270 12,3 C 14,4 C 2,4 km/h (1 Bft)
02.07.2012 09:20 14,0 C 89 % 0,0 l/m 1,4 km/h (1 Bft) N 360 12,2 C 14,3 C 5,3 km/h (1 Bft)
02.07.2012 09:25 14,0 C 89 % 0,0 l/m 1,8 km/h (1 Bft) W-NW 292 12,2 C 14,2 C 3,9 km/h (1 Bft)
02.07.2012 09:30 13,8 C 90 % 0,0 l/m 2,3 km/h (1 Bft) NW 315 12,2 C 13,9 C 2,9 km/h (1 Bft)
02.07.2012 09:35 13,7 C 90 % 0,0 l/m 2,9 km/h (1 Bft) N 360 12,1 C 13,7 C 2,4 km/h (1 Bft)
02.07.2012 09:40 13,8 C 90 % 0,0 l/m 3,5 km/h (1 Bft) N-NO 22 12,2 C 13,6 C 2,6 km/h (1 Bft)
02.07.2012 09:45 13,9 C 90 % 0,0 l/m 3,1 km/h (1 Bft) O-SO 112 12,3 C 13,7 C 3,4 km/h (1 Bft)
02.07.2012 09:50 14,0 C 90 % 0,0 l/m 1,9 km/h (1 Bft) N-NW 337 12,4 C 13,9 C 0,0 km/h (0 Bft)
02.07.2012 09:55 14,0 C 90 % 0,0 l/m 1,9 km/h (1 Bft) S 180 12,4 C 14,0 C 2,9 km/h (1 Bft)
02.07.2012 10:00 14,1 C 91 % 0,0 l/m 1,6 km/h (1 Bft) N-NO 22 12,7 C 14,0 C 1,9 km/h (1 Bft)
02.07.2012 10:05 13,9 C 91 % 0,0 l/m 1,6 km/h (1 Bft) SO 135 12,5 C 14,0 C 3,2 km/h (1 Bft)
02.07.2012 10:10 13,9 C 91 % 0,0 l/m 0,8 km/h (0 Bft) O-SO 112 12,5 C 14,0 C 0,0 km/h (0 Bft)
02.07.2012 10:15 13,9 C 91 % 0,0 l/m 0,6 km/h (0 Bft) NO 45 12,5 C 14,0 C 1,6 km/h (1 Bft)
02.07.2012 10:20 14,0 C 91 % 0,0 l/m 1,4 km/h (1 Bft) SO 135 12,6 C 14,1 C 4,0 km/h (1 Bft)
02.07.2012 10:25 14,1 C 91 % 0,0 l/m 2,4 km/h (1 Bft) O-SO 112 12,7 C 14,1 C 3,9 km/h (1 Bft)
02.07.2012 10:30 14,1 C 91 % 0,0 l/m 2,6 km/h (1 Bft) N 360 12,7 C 14,2 C 0,0 km/h (0 Bft)
02.07.2012 10:35 14,2 C 91 % 0,0 l/m 2,3 km/h (1 Bft) O-SO 112 12,8 C 14,2 C 1,9 km/h (1 Bft)
02.07.2012 10:40 14,2 C 91 % 0,0 l/m 1,4 km/h (1 Bft) SO 135 12,8 C 14,3 C 0,0 km/h (0 Bft)
02.07.2012 10:45 14,4 C 91 % 0,0 l/m 1,4 km/h (1 Bft) SO 135 12,9 C 14,4 C 2,4 km/h (1 Bft)
02.07.2012 10:50 14,5 C 91 % 0,0 l/m 1,9 km/h (1 Bft) O-SO 112 13,0 C 14,5 C 4,7 km/h (1 Bft)
02.07.2012 10:55 14,7 C 91 % 0,0 l/m 2,6 km/h (1 Bft) SO 135 13,2 C 14,7 C 5,1 km/h (1 Bft)
02.07.2012 11:00 14,7 C 91 % 0,0 l/m 4,3 km/h (1 Bft) S-SW 202 13,2 C 14,9 C 8,0 km/h (2 Bft)
02.07.2012 11:05 14,7 C 90 % 0,0 l/m 4,8 km/h (1 Bft) SO 135 13,1 C 14,9 C 7,6 km/h (2 Bft)
02.07.2012 11:10 15,3 C 89 % 0,0 l/m 5,6 km/h (1 Bft) S 180 13,5 C 15,3 C 4,5 km/h (1 Bft)
02.07.2012 11:15 15,5 C 88 % 0,0 l/m 6,1 km/h (2 Bft) O-SO 112 13,5 C 15,6 C 8,9 km/h (2 Bft)
02.07.2012 11:20 15,8 C 87 % 0,0 l/m 6,3 km/h (2 Bft) SO 135 13,6 C 16,0 C 6,3 km/h (2 Bft)
02.07.2012 11:25 15,8 C 87 % 0,0 l/m 5,6 km/h (1 Bft) S 180 13,6 C 16,1 C 2,9 km/h (1 Bft)
02.07.2012 11:30 15,6 C 86 % 0,0 l/m 4,5 km/h (1 Bft) O-SO 112 13,3 C 16,2 C 7,2 km/h (2 Bft)
02.07.2012 11:35 15,4 C 86 % 0,0 l/m 5,1 km/h (1 Bft) O-SO 112 13,1 C 16,1 C 9,8 km/h (2 Bft)
02.07.2012 11:40 15,6 C 86 % 0,0 l/m 5,1 km/h (1 Bft) O 90 13,3 C 16,0 C 4,8 km/h (1 Bft)
02.07.2012 11:45 15,6 C 86 % 0,0 l/m 5,3 km/h (1 Bft) S 180 13,3 C 16,1 C 1,6 km/h (1 Bft)
02.07.2012 11:50 16,1 C 84 % 0,0 l/m 5,5 km/h (1 Bft) SO 135 13,4 C 16,5 C 7,7 km/h (2 Bft)
02.07.2012 11:55 16,2 C 85 % 0,0 l/m 4,3 km/h (1 Bft) S-SO 157 13,7 C 16,7 C 3,7 km/h (1 Bft)
02.07.2012 12:00 16,0 C 84 % 0,0 l/m 5,5 km/h (1 Bft) S-SO 157 13,3 C 16,9 C 5,5 km/h (1 Bft)
02.07.2012 12:05 16,0 C 84 % 0,0 l/m 6,0 km/h (2 Bft) SO 135 13,3 C 16,7 C 6,8 km/h (2 Bft)
02.07.2012 12:10 15,9 C 85 % 0,0 l/m 7,2 km/h (2 Bft) SO 135 13,4 C 16,2 C 16,4 km/h (3 Bft)
02.07.2012 12:15 15,9 C 85 % 0,0 l/m 8,0 km/h (2 Bft) SO 135 13,4 C 15,5 C 7,1 km/h (2 Bft)
02.07.2012 12:20 15,7 C 85 % 0,0 l/m 7,9 km/h (2 Bft) O-SO 112 13,2 C 15,3 C 9,0 km/h (2 Bft)
02.07.2012 12:25 15,7 C 85 % 0,0 l/m 7,1 km/h (2 Bft) S-SW 202 13,2 C 15,6 C 10,8 km/h (2 Bft)
02.07.2012 12:30 15,7 C 86 % 0,0 l/m 7,6 km/h (2 Bft) SO 135 13,4 C 15,3 C 10,0 km/h (2 Bft)
02.07.2012 12:35 16,2 C 85 % 0,0 l/m 7,6 km/h (2 Bft) N 360 13,7 C 15,5 C 5,0 km/h (1 Bft)
02.07.2012 12:40 16,7 C 84 % 0,0 l/m 6,8 km/h (2 Bft) O-SO 112 14,0 C 16,6 C 5,3 km/h (1 Bft)
02.07.2012 12:45 17,5 C 83 % 0,0 l/m 6,3 km/h (2 Bft) SO 135 14,6 C 17,5 C 13,0 km/h (3 Bft)
02.07.2012 12:50 17,0 C 80 % 0,0 l/m 7,6 km/h (2 Bft) O-SO 112 13,5 C 17,1 C 10,5 km/h (2 Bft)
02.07.2012 12:55 17,3 C 80 % 0,0 l/m 7,1 km/h (2 Bft) O 90 13,8 C 17,7 C 5,1 km/h (1 Bft)
02.07.2012 13:00 17,1 C 80 % 0,0 l/m 6,1 km/h (2 Bft) S-SO 157 13,6 C 18,3 C 6,6 km/h (2 Bft)
02.07.2012 13:05 17,2 C 80 % 0,0 l/m 6,9 km/h (2 Bft) SO 135 13,7 C 17,9 C 7,6 km/h (2 Bft)
02.07.2012 13:10 17,8 C 81 % 0,0 l/m 6,4 km/h (2 Bft) O-SO 112 14,5 C 18,3 C 3,9 km/h (1 Bft)
02.07.2012 13:15 18,1 C 80 % 0,0 l/m 5,1 km/h (1 Bft) SO 135 14,6 C 18,8 C 5,3 km/h (1 Bft)
02.07.2012 13:20 18,7 C 77 % 0,0 l/m 4,2 km/h (1 Bft) S-SO 157 14,6 C 19,9 C 4,7 km/h (1 Bft)
02.07.2012 13:25 18,1 C 79 % 0,0 l/m 3,9 km/h (1 Bft) NO 45 14,4 C 20,0 C 2,3 km/h (1 Bft)
02.07.2012 13:30 17,6 C 79 % 0,0 l/m 3,1 km/h (1 Bft) S-SO 157 13,9 C 19,6 C 2,9 km/h (1 Bft)
02.07.2012 13:35 17,7 C 80 % 0,0 l/m 2,4 km/h (1 Bft) O 90 14,2 C 19,5 C 2,7 km/h (1 Bft)
02.07.2012 13:40 18,1 C 80 % 0,0 l/m 1,9 km/h (1 Bft) SO 135 14,6 C 19,5 C 1,6 km/h (1 Bft)
02.07.2012 13:45 18,7 C 78 % 0,0 l/m 1,4 km/h (1 Bft) N-NW 337 14,8 C 20,1 C 2,9 km/h (1 Bft)
02.07.2012 13:50 20,3 C 74 % 0,0 l/m 1,3 km/h (1 Bft) W-SW 247 15,5 C 21,9 C 2,1 km/h (1 Bft)
02.07.2012 13:55 20,4 C 67 % 0,0 l/m 1,6 km/h (1 Bft) N-NW 337 14,1 C 23,5 C 3,9 km/h (1 Bft)
02.07.2012 14:00 21,4 C 69 % 0,0 l/m 2,1 km/h (1 Bft) W 270 15,5 C 25,0 C 4,7 km/h (1 Bft)
02.07.2012 14:05 19,9 C 68 % 0,0 l/m 3,5 km/h (1 Bft) S 180 13,8 C 24,4 C 6,3 km/h (2 Bft)
02.07.2012 14:10 20,5 C 71 % 0,0 l/m 4,0 km/h (1 Bft) W-NW 292 15,1 C 23,1 C 2,3 km/h (1 Bft)
02.07.2012 14:15 21,3 C 65 % 0,0 l/m 3,9 km/h (1 Bft) W-SW 247 14,4 C 23,4 C 5,8 km/h (2 Bft)
02.07.2012 14:20 21,3 C 68 % 0,0 l/m 4,0 km/h (1 Bft) S-SW 202 15,1 C 24,2 C 5,5 km/h (1 Bft)
02.07.2012 14:25 20,9 C 67 % 0,0 l/m 4,7 km/h (1 Bft) W-SW 247 14,5 C 23,4 C 6,3 km/h (2 Bft)
02.07.2012 14:30 21,0 C 68 % 0,0 l/m 3,9 km/h (1 Bft) S-SO 157 14,9 C 23,2 C 4,0 km/h (1 Bft)
02.07.2012 14:35 20,7 C 67 % 0,0 l/m 3,2 km/h (1 Bft) SW 225 14,3 C 23,4 C 3,2 km/h (1 Bft)
02.07.2012 14:40 21,8 C 64 % 0,0 l/m 3,4 km/h (1 Bft) W-SW 247 14,7 C 24,1 C 2,9 km/h (1 Bft)
02.07.2012 14:45 20,7 C 66 % 0,0 l/m 3,5 km/h (1 Bft) NO 45 14,1 C 23,9 C 2,3 km/h (1 Bft)
02.07.2012 14:50 20,1 C 67 % 0,0 l/m 2,9 km/h (1 Bft) O-SO 112 13,8 C 23,0 C 1,9 km/h (1 Bft)
02.07.2012 14:55 21,1 C 67 % 0,0 l/m 2,1 km/h (1 Bft) W-SW 247 14,7 C 23,1 C 3,9 km/h (1 Bft)
02.07.2012 15:00 20,9 C 65 % 0,0 l/m 2,7 km/h (1 Bft) W-SW 247 14,1 C 23,5 C 5,0 km/h (1 Bft)
02.07.2012 15:05 20,9 C 67 % 0,0 l/m 3,5 km/h (1 Bft) W-SW 247 14,5 C 23,1 C 4,5 km/h (1 Bft)
02.07.2012 15:10 19,9 C 69 % 0,0 l/m 4,7 km/h (1 Bft) W-SW 247 14,0 C 22,1 C 4,7 km/h (1 Bft)
02.07.2012 15:15 20,2 C 69 % 0,0 l/m 4,2 km/h (1 Bft) S-SO 157 14,3 C 21,8 C 0,0 km/h (0 Bft)
02.07.2012 15:20 20,0 C 69 % 0,0 l/m 3,2 km/h (1 Bft) S-SO 157 14,1 C 21,4 C 4,7 km/h (1 Bft)
02.07.2012 15:25 19,9 C 70 % 0,0 l/m 3,2 km/h (1 Bft) S 180 14,3 C 21,1 C 4,8 km/h (1 Bft)
02.07.2012 15:30 19,5 C 71 % 0,0 l/m 3,7 km/h (1 Bft) W 270 14,1 C 20,5 C 5,5 km/h (1 Bft)
02.07.2012 15:35 19,1 C 72 % 0,0 l/m 3,5 km/h (1 Bft) W-SW 247 13,9 C 20,1 C 3,7 km/h (1 Bft)
02.07.2012 15:40 19,2 C 73 % 0,0 l/m 2,6 km/h (1 Bft) O-SO 112 14,2 C 20,0 C 1,6 km/h (1 Bft)
02.07.2012 15:45 19,0 C 73 % 0,0 l/m 2,4 km/h (1 Bft) SO 135 14,0 C 19,8 C 5,0 km/h (1 Bft)
02.07.2012 15:50 19,7 C 72 % 0,0 l/m 3,2 km/h (1 Bft) S-SW 202 14,5 C 20,0 C 6,4 km/h (2 Bft)
02.07.2012 15:55 19,7 C 72 % 0,0 l/m 3,4 km/h (1 Bft) W-SW 247 14,5 C 20,1 C 3,4 km/h (1 Bft)
02.07.2012 16:00 19,3 C 72 % 0,0 l/m 2,9 km/h (1 Bft) O-SO 112 14,1 C 20,4 C 2,4 km/h (1 Bft)
02.07.2012 16:05 19,1 C 73 % 0,0 l/m 2,6 km/h (1 Bft) S 180 14,1 C 20,3 C 0,0 km/h (0 Bft)
02.07.2012 16:10 19,1 C 73 % 0,0 l/m 2,1 km/h (1 Bft) SO 135 14,1 C 20,3 C 1,8 km/h (1 Bft)
02.07.2012 16:15 19,2 C 73 % 0,0 l/m 1,6 km/h (1 Bft) W-SW 247 14,2 C 20,2 C 0,0 km/h (0 Bft)
02.07.2012 16:20 19,3 C 73 % 0,0 l/m 2,6 km/h (1 Bft) W-NW 292 14,3 C 20,5 C 5,1 km/h (1 Bft)
02.07.2012 16:25 18,8 C 74 % 0,0 l/m 3,2 km/h (1 Bft) W-SW 247 14,1 C 20,2 C 6,4 km/h (2 Bft)
02.07.2012 16:30 18,0 C 77 % 0,0 l/m 4,0 km/h (1 Bft) N-NW 337 13,9 C 19,3 C 3,2 km/h (1 Bft)
02.07.2012 16:35 17,8 C 78 % 0,0 l/m 4,8 km/h (1 Bft) W-SW 247 13,9 C 18,8 C 6,8 km/h (2 Bft)
02.07.2012 16:40 18,0 C 78 % 0,0 l/m 5,5 km/h (1 Bft) NO 45 14,1 C 18,3 C 4,0 km/h (1 Bft)
02.07.2012 16:45 18,0 C 78 % 0,0 l/m 5,5 km/h (1 Bft) W-NW 292 14,1 C 18,5 C 6,4 km/h (2 Bft)
02.07.2012 16:50 18,7 C 76 % 0,0 l/m 4,8 km/h (1 Bft) W-SW 247 14,4 C 18,9 C 4,2 km/h (1 Bft)
02.07.2012 16:55 18,7 C 76 % 0,0 l/m 4,7 km/h (1 Bft) W-SW 247 14,4 C 19,5 C 6,6 km/h (2 Bft)
02.07.2012 17:00 20,0 C 74 % 0,0 l/m 4,2 km/h (1 Bft) S-SW 202 15,2 C 21,1 C 7,7 km/h (2 Bft)
02.07.2012 17:05 20,3 C 72 % 0,0 l/m 4,8 km/h (1 Bft) W-SW 247 15,1 C 22,1 C 7,7 km/h (2 Bft)
02.07.2012 17:10 19,6 C 72 % 0,0 l/m 4,3 km/h (1 Bft) W-SW 247 14,4 C 22,4 C 3,9 km/h (1 Bft)
02.07.2012 17:15 19,0 C 73 % 0,0 l/m 3,4 km/h (1 Bft) W 270 14,0 C 21,9 C 7,9 km/h (2 Bft)
02.07.2012 17:20 18,9 C 75 % 0,0 l/m 3,2 km/h (1 Bft) N-NW 337 14,4 C 20,6 C 4,2 km/h (1 Bft)
02.07.2012 17:25 18,8 C 75 % 0,0 l/m 3,5 km/h (1 Bft) SO 135 14,3 C 20,1 C 3,1 km/h (1 Bft)
02.07.2012 17:30 19,0 C 75 % 0,0 l/m 3,2 km/h (1 Bft) W-SW 247 14,5 C 19,8 C 4,2 km/h (1 Bft)
02.07.2012 17:35 18,9 C 75 % 0,0 l/m 3,4 km/h (1 Bft) W-NW 292 14,4 C 19,7 C 4,2 km/h (1 Bft)
02.07.2012 17:40 18,7 C 75 % 0,0 l/m 3,1 km/h (1 Bft) W-NW 292 14,2 C 19,5 C 3,7 km/h (1 Bft)
02.07.2012 17:45 18,5 C 76 % 0,0 l/m 2,7 km/h (1 Bft) N-NW 337 14,2 C 19,2 C 4,7 km/h (1 Bft)
02.07.2012 17:50 18,9 C 76 % 0,0 l/m 3,5 km/h (1 Bft) W 270 14,6 C 19,1 C 6,8 km/h (2 Bft)
02.07.2012 17:55 18,7 C 76 % 0,0 l/m 4,0 km/h (1 Bft) N-NW 337 14,4 C 19,4 C 5,1 km/h (1 Bft)
02.07.2012 18:00 18,7 C 76 % 0,0 l/m 4,2 km/h (1 Bft) N-NW 337 14,4 C 19,5 C 4,0 km/h (1 Bft)
02.07.2012 18:05 18,5 C 77 % 0,0 l/m 3,2 km/h (1 Bft) S 180 14,4 C 19,3 C 6,1 km/h (2 Bft)
02.07.2012 18:10 18,5 C 77 % 0,0 l/m 2,3 km/h (1 Bft) W-SW 247 14,4 C 19,0 C 2,1 km/h (1 Bft)
02.07.2012 18:15 18,3 C 77 % 0,0 l/m 1,9 km/h (1 Bft) W 270 14,2 C 18,9 C 2,9 km/h (1 Bft)
02.07.2012 18:20 18,2 C 78 % 0,0 l/m 1,9 km/h (1 Bft) NO 45 14,3 C 18,8 C 0,0 km/h (0 Bft)
02.07.2012 18:25 18,2 C 78 % 0,0 l/m 2,6 km/h (1 Bft) W 270 14,3 C 18,7 C 5,1 km/h (1 Bft)
02.07.2012 18:30 18,1 C 78 % 0,0 l/m 2,7 km/h (1 Bft) S-SW 202 14,2 C 18,5 C 3,1 km/h (1 Bft)
02.07.2012 18:35 18,1 C 78 % 0,0 l/m 2,1 km/h (1 Bft) NO 45 14,2 C 18,5 C 0,0 km/h (0 Bft)
02.07.2012 18:40 18,0 C 78 % 0,0 l/m 1,3 km/h (1 Bft) W 270 14,1 C 18,4 C 2,9 km/h (1 Bft)
02.07.2012 18:45 18,1 C 78 % 0,0 l/m 1,3 km/h (1 Bft) S 180 14,2 C 18,3 C 0,0 km/h (0 Bft)
02.07.2012 18:50 17,9 C 79 % 0,0 l/m 0,8 km/h (0 Bft) W-SW 247 14,2 C 18,3 C 3,1 km/h (1 Bft)
02.07.2012 18:55 17,9 C 79 % 0,0 l/m 1,3 km/h (1 Bft) W-NW 292 14,2 C 18,3 C 3,4 km/h (1 Bft)
02.07.2012 19:00 17,7 C 79 % 0,0 l/m 1,6 km/h (1 Bft) SO 135 14,0 C 18,1 C 0,0 km/h (0 Bft)
02.07.2012 19:05 17,7 C 79 % 0,0 l/m 0,8 km/h (0 Bft) S-SO 157 14,0 C 18,0 C 0,0 km/h (0 Bft)
02.07.2012 19:10 17,6 C 79 % 0,0 l/m 0,0 km/h (0 Bft) N-NO 22 13,9 C 18,0 C 0,0 km/h (0 Bft)
02.07.2012 19:15 17,4 C 80 % 0,0 l/m 0,0 km/h (0 Bft) NO 45 13,9 C 18,0 C 0,0 km/h (0 Bft)
02.07.2012 19:20 17,5 C 80 % 0,0 l/m 0,3 km/h (0 Bft) S 180 14,0 C 17,8 C 0,0 km/h (0 Bft)
02.07.2012 19:25 17,5 C 81 % 0,0 l/m 0,5 km/h (0 Bft) W-SW 247 14,2 C 17,5 C 0,0 km/h (0 Bft)
02.07.2012 19:30 17,4 C 81 % 0,0 l/m 0,5 km/h (0 Bft) SW 225 14,1 C 17,1 C 0,0 km/h (0 Bft)
02.07.2012 19:35 17,4 C 82 % 0,0 l/m 1,0 km/h (0 Bft) W 270 14,3 C 17,0 C 3,2 km/h (1 Bft)
02.07.2012 19:40 17,5 C 82 % 0,0 l/m 1,4 km/h (1 Bft) S 180 14,4 C 17,0 C 0,0 km/h (0 Bft)
02.07.2012 19:45 17,5 C 82 % 0,0 l/m 1,0 km/h (0 Bft) S-SO 157 14,4 C 17,1 C 0,0 km/h (0 Bft)
02.07.2012 19:50 17,6 C 82 % 0,0 l/m 0,6 km/h (0 Bft) O 90 14,5 C 17,2 C 3,4 km/h (1 Bft)
02.07.2012 19:55 17,6 C 82 % 0,0 l/m 1,0 km/h (0 Bft) O 90 14,5 C 17,3 C 1,6 km/h (1 Bft)
02.07.2012 20:00 17,6 C 82 % 0,0 l/m 1,0 km/h (0 Bft) O-SO 112 14,5 C 17,3 C 2,9 km/h (1 Bft)
02.07.2012 20:05 17,4 C 82 % 0,0 l/m 0,8 km/h (0 Bft) SO 135 14,3 C 17,2 C 0,0 km/h (0 Bft)
02.07.2012 20:10 17,3 C 82 % 0,0 l/m 1,4 km/h (1 Bft) SO 135 14,2 C 17,2 C 2,3 km/h (1 Bft)
02.07.2012 20:15 17,3 C 82 % 0,0 l/m 0,8 km/h (0 Bft) S-SW 202 14,2 C 17,1 C 0,0 km/h (0 Bft)
02.07.2012 20:20 17,2 C 83 % 0,0 l/m 1,1 km/h (1 Bft) S-SW 202 14,3 C 17,0 C 3,5 km/h (1 Bft)
02.07.2012 20:25 17,1 C 83 % 0,0 l/m 1,8 km/h (1 Bft) S 180 14,2 C 16,9 C 3,2 km/h (1 Bft)
02.07.2012 20:30 17,0 C 83 % 0,0 l/m 1,6 km/h (1 Bft) SW 225 14,1 C 16,8 C 1,9 km/h (1 Bft)
02.07.2012 20:35 16,9 C 83 % 0,0 l/m 1,1 km/h (1 Bft) O 90 14,0 C 16,7 C 2,4 km/h (1 Bft)
02.07.2012 20:40 16,9 C 84 % 0,0 l/m 0,8 km/h (0 Bft) SO 135 14,2 C 16,7 C 1,8 km/h (1 Bft)
02.07.2012 20:45 16,8 C 84 % 0,0 l/m 1,1 km/h (1 Bft) SO 135 14,1 C 16,6 C 2,4 km/h (1 Bft)
02.07.2012 20:50 16,7 C 84 % 0,0 l/m 1,3 km/h (1 Bft) S 180 14,0 C 16,4 C 0,0 km/h (0 Bft)
02.07.2012 20:55 16,6 C 86 % 0,0 l/m 0,8 km/h (0 Bft) SW 225 14,2 C 16,4 C 0,0 km/h (0 Bft)
02.07.2012 21:00 16,4 C 87 % 0,0 l/m 0,5 km/h (0 Bft) N 360 14,2 C 16,2 C 0,0 km/h (0 Bft)
02.07.2012 21:05 16,4 C 87 % 0,0 l/m 0,6 km/h (0 Bft) N-NO 22 14,2 C 16,1 C 0,0 km/h (0 Bft)
02.07.2012 21:10 16,2 C 87 % 0,0 l/m 0,3 km/h (0 Bft) N-NO 22 14,0 C 15,9 C 1,6 km/h (1 Bft)
02.07.2012 21:15 16,1 C 87 % 0,0 l/m 0,2 km/h (0 Bft) N-NO 22 13,9 C 15,9 C 0,0 km/h (0 Bft)
02.07.2012 21:20 16,2 C 88 % 0,0 l/m 0,6 km/h (0 Bft) O-SO 112 14,2 C 15,9 C 0,0 km/h (0 Bft)
02.07.2012 21:25 16,2 C 88 % 0,0 l/m 0,6 km/h (0 Bft) O 90 14,2 C 15,9 C 0,0 km/h (0 Bft)
02.07.2012 21:30 16,2 C 88 % 0,0 l/m 0,3 km/h (0 Bft) N 360 14,2 C 16,0 C 0,0 km/h (0 Bft)
02.07.2012 21:35 16,2 C 88 % 0,0 l/m 0,3 km/h (0 Bft) O 90 14,2 C 16,0 C 0,0 km/h (0 Bft)
02.07.2012 21:40 16,3 C 88 % 0,0 l/m 0,6 km/h (0 Bft) S-SW 202 14,3 C 16,0 C 3,2 km/h (1 Bft)
02.07.2012 21:45 16,3 C 88 % 0,0 l/m 1,4 km/h (1 Bft) S-SW 202 14,3 C 16,0 C 0,0 km/h (0 Bft)
02.07.2012 21:50 16,1 C 88 % 0,0 l/m 1,3 km/h (1 Bft) S 180 14,1 C 15,9 C 2,7 km/h (1 Bft)
02.07.2012 21:55 16,1 C 89 % 0,0 l/m 0,5 km/h (0 Bft) NO 45 14,3 C 15,8 C 0,0 km/h (0 Bft)
02.07.2012 22:00 16,1 C 89 % 0,0 l/m 1,0 km/h (0 Bft) SO 135 14,3 C 15,8 C 3,9 km/h (1 Bft)
02.07.2012 22:05 16,1 C 89 % 0,0 l/m 1,8 km/h (1 Bft) S 180 14,3 C 15,8 C 2,3 km/h (1 Bft)
02.07.2012 22:10 16,1 C 90 % 0,0 l/m 2,6 km/h (1 Bft) O-SO 112 14,5 C 15,9 C 6,3 km/h (2 Bft)
02.07.2012 22:15 16,1 C 90 % 0,0 l/m 3,1 km/h (1 Bft) SO 135 14,5 C 15,9 C 6,8 km/h (2 Bft)
02.07.2012 22:20 16,1 C 90 % 0,0 l/m 3,9 km/h (1 Bft) N-NO 22 14,5 C 15,9 C 0,0 km/h (0 Bft)
02.07.2012 22:25 16,0 C 90 % 0,0 l/m 2,6 km/h (1 Bft) S-SO 157 14,4 C 15,9 C 2,6 km/h (1 Bft)
02.07.2012 22:30 16,0 C 90 % 0,0 l/m 1,0 km/h (0 Bft) O-SO 112 14,4 C 15,9 C 0,0 km/h (0 Bft)
02.07.2012 22:35 16,0 C 90 % 0,0 l/m 1,4 km/h (1 Bft) SO 135 14,4 C 15,9 C 2,7 km/h (1 Bft)
02.07.2012 22:40 16,0 C 90 % 0,0 l/m 0,8 km/h (0 Bft) NW 315 14,4 C 15,9 C 2,9 km/h (1 Bft)
02.07.2012 22:45 15,9 C 92 % 0,0 l/m 0,3 km/h (0 Bft) SO 135 14,6 C 15,9 C 0,0 km/h (0 Bft)
02.07.2012 22:50 15,9 C 92 % 0,0 l/m 0,2 km/h (0 Bft) NO 45 14,6 C 15,9 C 0,0 km/h (0 Bft)
02.07.2012 22:55 16,0 C 90 % 0,0 l/m 0,2 km/h (0 Bft) S 180 14,4 C 15,9 C 0,0 km/h (0 Bft)
02.07.2012 23:00 16,0 C 90 % 0,0 l/m 0,6 km/h (0 Bft) S-SW 202 14,4 C 15,9 C 0,0 km/h (0 Bft)
02.07.2012 23:05 16,0 C 90 % 0,0 l/m 1,4 km/h (1 Bft) SO 135 14,4 C 15,9 C 4,7 km/h (1 Bft)
02.07.2012 23:10 16,0 C 90 % 0,0 l/m 1,8 km/h (1 Bft) O-SO 112 14,4 C 15,8 C 0,0 km/h (0 Bft)
02.07.2012 23:15 15,9 C 92 % 0,0 l/m 1,8 km/h (1 Bft) SO 135 14,6 C 15,7 C 1,6 km/h (1 Bft)
02.07.2012 23:20 15,9 C 92 % 0,0 l/m 1,1 km/h (1 Bft) SO 135 14,6 C 15,6 C 2,7 km/h (1 Bft)
02.07.2012 23:25 15,9 C 92 % 0,7 l/m 1,3 km/h (1 Bft) SO 135 14,6 C 15,6 C 2,9 km/h (1 Bft)
02.07.2012 23:30 15,9 C 92 % 0,0 l/m 1,9 km/h (1 Bft) O 90 14,6 C 15,6 C 2,6 km/h (1 Bft)
02.07.2012 23:35 15,8 C 92 % 0,0 l/m 1,3 km/h (1 Bft) N 360 14,5 C 15,6 C 0,0 km/h (0 Bft)
02.07.2012 23:40 15,7 C 92 % 0,0 l/m 0,6 km/h (0 Bft) N-NO 22 14,4 C 15,5 C 1,9 km/h (1 Bft)
02.07.2012 23:45 15,7 C 92 % 0,0 l/m 0,6 km/h (0 Bft) N-NO 22 14,4 C 15,4 C 0,0 km/h (0 Bft)
02.07.2012 23:50 15,5 C 92 % 0,0 l/m 1,0 km/h (0 Bft) N-NW 337 14,2 C 15,4 C 2,1 km/h (1 Bft)
02.07.2012 23:55 15,4 C 92 % 0,0 l/m 1,3 km/h (1 Bft) N-NW 337 14,1 C 15,3 C 1,9 km/h (1 Bft)
_ Min-Zeit 03:20 14:40 - 19:15 - - 03:20 03:45 23:45
Minimum _ 11,5 C 64 % - 0,0 km/h (0 Bft) - - 10,6 C 11,1 C 0,0 km/h (0 Bft)
_ Max-Zeit 14:40 06:10 23:25 12:15 - - 13:50 14:00 12:10
Maximum _ 21,8 C 95 % 0,7 l/m 8,0 km/h
SO (2 Bft)
- - 15,5 C 25,0 C 16,4 km/h
SO (3 Bft)
Durchschnitt _ 15,6 C 86 % #0,7 l/m 2,1 km/h (1 Bft) SO - 13,1 C 15,8 C 2,8 km/h (1 Bft)